Location: Góry Miechowskie
(50.3599°N, 20.1803°E)
Time: 13:09:35
(UTC+00:00)

NOSS 3-2 (A) - Pass Details

Date: 15 June 2024
Orbit: 705 x 1500 km, 63.4° (Epoch: 11 July)

Event Time Altitude Azimuth Distance (km) Brightness Sun altitude
Exits shadow 00:56:26 10° 238° (WSW) 2,342 5.0 -10.4°
Maximum altitude 01:01:45 63° 320° (NW) 982 3.6 -9.9°
Drops below altitude 10° 01:08:13 10° 42° (NE) 2,825 7.5 -9.3°
Sets 01:11:09 0° 45° (NE) 3,911 8.7 -9.1°
